FW1419 Weather Reports


Display with metric or nautical units.
time (UTC)temp
F
wind
direction
speed
MPH
gust
MPH
rain 1hr
in
rain 24hr
in
rain mn
in
humidity
%
barometer
mb
20260505170818 53 132 0.0 0.0 0.01 0.21 0.21 92 1014.8
20260505170313 53 132 0.0 0.0 0.01 0.21 0.21 92 1014.9
20260505165825 53 132 0.0 0.0 0.01 0.21 0.21 92 1014.9
20260505165315 53 132 0.0 1.0 0.01 0.21 0.21 92 1014.8
20260505164826 53 132 0.0 1.0 0.01 0.21 0.21 92 1014.8
20260505164318 53 226 0.0 0.0 0.01 0.21 0.21 92 1014.7
20260505163850 53 158 0.0 0.0 0.01 0.21 0.21 93 1014.6
20260505163320 53 212 0.0 0.0 0.01 0.21 0.21 93 1014.6
20260505162811 52 212 0.0 0.0 0.02 0.21 0.21 93 1014.6
20260505162323 52 212 0.0 0.0 0.03 0.21 0.21 93 1014.5
20260505161839 52 212 0.0 0.0 0.03 0.21 0.21 93 1014.4
20260505161349 52 212 0.0 0.0 0.03 0.21 0.21 93 1014.4
20260505160819 52 212 0.0 0.0 0.02 0.20 0.20 93 1014.3
20260505160331 52 230 0.0 0.0 0.02 0.20 0.20 93 1014.3
20260505153312 51 302 2.0 7.0 0.02 0.20 0.20 92 1014.2
20260505152822 52 293 4.0 7.0 0.01 0.19 0.19 92 1014.0
20260505152315 52 306 0.0 0.0 0.00 0.18 0.18 93 1013.9
20260505151846 52 107 0.0 0.0 0.00 0.18 0.18 94 1013.9
20260505151319 52 107 0.0 0.0 0.01 0.18 0.18 94 1013.9
20260505150811 52 107 0.0 0.0 0.02 0.18 0.18 94 1013.9
20260505150323 52 107 0.0 0.0 0.02 0.18 0.18 94 1013.9
20260505140322 51 107 0.0 0.0 0.01 0.16 0.16 94 1013.5
20260505124815 50 107 0.0 0.0 0.01 0.12 0.12 93 1013.0
20260505124346 50 107 0.0 0.0 0.01 0.12 0.12 93 1013.0
20260505123815 50 121 0.0 0.0 0.01 0.12 0.12 93 1013.0
20260505123328 50 121 0.0 0.0 0.01 0.12 0.12 93 1013.0
20260505122819 50 129 0.0 0.0 0.01 0.12 0.12 93 1013.1
20260505122311 50 129 0.0 0.0 0.01 0.12 0.12 93 1013.1
20260505121842 50 129 0.0 0.0 0.01 0.12 0.12 93 1013.1
20260505121311 50 129 0.0 0.0 0.01 0.12 0.12 93 1013.0
20260505120822 50 130 0.0 0.0 0.01 0.12 0.12 93 1013.1
20260505120317 50 130 0.0 0.0 0.01 0.12 0.12 93 1013.1
20260505115829 50 130 0.0 0.0 0.01 0.12 0.12 93 1013.2
20260505115320 51 130 0.0 0.0 0.00 0.11 0.11 93 1013.2
20260505114812 51 130 0.0 0.0 0.00 0.11 0.11 93 1013.2
20260505114324 51 130 0.0 0.0 0.00 0.11 0.11 93 1013.1
20260505113817 50 130 0.0 0.0 0.00 0.11 0.11 93 1013.3
20260505113328 50 130 0.0 0.0 0.00 0.11 0.11 93 1013.2
20260505112820 50 130 0.0 0.0 0.00 0.11 0.11 93 1013.2
20260505112314 50 130 0.0 0.0 0.00 0.11 0.11 93 1013.2
20260505111825 50 130 0.0 0.0 0.00 0.11 0.11 93 1013.2
20260505111317 50 130 0.0 0.0 0.00 0.11 0.11 93 1013.3
20260505110829 50 130 0.0 0.0 0.00 0.11 0.11 93 1013.2
20260505110319 50 130 0.0 0.0 0.00 0.11 0.11 93 1013.2
20260505101822 50 94 0.0 0.0 0.00 0.11 0.11 93 1013.3
20260505101314 50 94 0.0 0.0 0.00 0.11 0.11 92 1013.3
20260505100825 50 94 0.0 0.0 0.00 0.11 0.11 93 1013.4
20260505100317 50 94 0.0 0.0 0.01 0.11 0.11 92 1013.5
20260505095849 50 94 0.0 0.0 0.01 0.11 0.11 92 1013.5
20260505095318 50 94 0.0 0.0 0.02 0.11 0.11 92 1013.5
20260505094833 50 94 0.0 0.0 0.03 0.11 0.11 92 1013.5
20260505094322 50 94 0.0 0.0 0.03 0.11 0.11 92 1013.6
20260505093834 51 86 0.0 0.0 0.03 0.11 0.11 92 1013.7
20260505093325 51 86 0.0 0.0 0.03 0.11 0.11 92 1013.7
20260505092815 51 86 0.0 0.0 0.03 0.11 0.11 92 1013.7
20260505092326 51 77 0.0 0.0 0.03 0.11 0.11 92 1013.8
20260505091817 51 48 0.0 0.0 0.03 0.11 0.11 92 1013.9
20260505091329 51 32 0.0 0.0 0.03 0.11 0.11 92 1014.0
20260505090819 51 20 0.0 0.0 0.03 0.11 0.11 92 1014.1
20260505090331 51 15 0.0 0.0 0.03 0.10 0.10 92 1014.1
20260505085817 51 15 0.0 0.0 0.03 0.10 0.10 91 1014.4
20260505085312 51 8 0.0 0.0 0.02 0.09 0.09 92 1014.3
20260505084824 51 285 0.0 0.0 0.01 0.08 0.08 91 1014.4
20260505084314 51 285 0.0 0.0 0.02 0.08 0.08 91 1014.5
20260505083825 51 285 0.0 0.0 0.02 0.08 0.08 91 1014.5
20260505083316 51 285 0.0 0.0 0.04 0.08 0.08 91 1014.5
20260505082828 52 285 0.0 0.0 0.06 0.08 0.08 91 1014.5
20260505082318 52 285 0.0 0.0 0.07 0.08 0.08 91 1014.5
20260505081829 52 285 0.0 0.0 0.08 0.08 0.08 91 1014.7
20260505081341 52 38 0.0 4.0 0.08 0.08 0.08 90 1014.8
20260505080852 52 40 0.0 4.0 0.08 0.08 0.08 90 1014.8
20260505080344 52 210 0.0 0.0 0.07 0.07 0.07 90 1014.8
20260505075839 52 210 0.0 0.0 0.07 0.07 0.07 90 1014.7
20260505075327 52 210 0.0 0.0 0.07 0.07 0.07 89 1014.8
20260505074817 52 210 0.0 0.0 0.07 0.07 0.07 89 1014.8
20260505074329 52 210 0.0 0.0 0.06 0.06 0.06 89 1014.9
20260505073821 52 210 0.0 0.0 0.06 0.06 0.06 88 1015.0
20260505073312 53 210 0.0 0.0 0.04 0.04 0.04 88 1014.8
20260505072824 53 176 0.0 0.0 0.02 0.02 0.02 88 1014.9
20260505072314 53 342 0.0 0.0 0.01 0.01 0.01 87 1014.8
20260505071824 53 337 0.0 0.0 0.00 0.00 0.00 87 1014.8
20260505071336 53 337 0.0 2.0 0.00 0.00 0.00 87 1014.8
20260505070845 53 314 0.0 2.0 0.00 0.00 0.00 86 1014.8
20260505070335 53 271 0.0 0.0 0.00 0.00 0.00 86 1014.8
20260505065830 53 270 0.0 0.0 0.00 0.00 0.00 85 1014.8
20260505065321 54 269 0.0 0.0 0.00 0.00 0.00 85 1014.9
20260505064831 54 264 0.0 0.0 0.00 0.00 0.00 84 1014.9
20260505064322 54 264 0.0 0.0 0.00 0.00 0.00 84 1014.9
20260505063813 54 264 0.0 0.0 0.00 0.00 0.00 84 1014.9
20260505063324 54 264 0.0 0.0 0.00 0.00 0.00 84 1014.8
20260505062835 54 264 0.0 0.0 0.00 0.00 0.00 83 1014.8
20260505062324 54 264 0.0 0.0 0.00 0.00 0.00 83 1014.9
20260505061815 54 264 0.0 0.0 0.00 0.00 0.00 83 1014.9
20260505061326 54 264 0.0 4.0 0.00 0.00 0.00 82 1014.9
20260505060817 54 264 0.0 6.0 0.00 0.00 0.00 81 1015.0
20260505060312 55 205 1.0 6.0 0.00 0.00 0.00 78 1015.0
20260505055823 55 208 1.0 7.0 0.00 0.00 0.00 77 1015.1
20260505055314 55 221 2.0 7.0 0.00 0.00 0.00 77 1015.0
20260505054825 55 224 2.0 7.0 0.00 0.00 0.00 76 1015.0
20260505054337 55 239 3.0 7.0 0.00 0.00 0.00 76 1015.1
20260505053828 55 214 2.0 7.0 0.00 0.00 0.00 75 1015.1
20260505053318 55 204 3.0 6.0 0.00 0.00 0.00 75 1015.1
20260505052829 55 195 1.0 4.0 0.00 0.00 0.00 75 1015.1
20260505052320 55 188 1.0 4.0 0.00 0.00 0.00 75 1015.0
20260505051835 55 209 1.0 7.0 0.00 0.00 0.00 75 1015.1
20260505051327 55 212 2.0 8.0 0.00 0.00 0.00 74 1015.1
20260505050818 55 165 2.0 8.0 0.00 0.00 0.00 74 1015.1
20260505050348 55 229 2.0 8.0 0.00 0.00 0.00 74 1015.1
20260505041319 56 238 2.0 9.0 0.00 0.00 0.00 72 1014.9
20260505040829 56 209 2.0 9.0 0.00 0.00 0.00 72 1014.9
20260505040319 56 191 3.0 6.0 0.00 0.00 0.00 71 1014.9
20260505035830 57 152 2.0 7.0 0.00 0.00 0.00 70 1014.7
20260505035321 57 214 3.0 8.0 0.00 0.00 0.00 70 1014.7
20260505034811 57 232 2.0 8.0 0.00 0.00 0.00 69 1014.6
20260505034322 57 215 4.0 9.0 0.00 0.00 0.00 68 1014.5
20260505033814 57 214 5.0 11.0 0.00 0.00 0.00 68 1014.5
20260505033330 58 184 4.0 12.0 0.00 0.00 0.00 68 1014.5
20260505032821 58 277 4.0 8.0 0.00 0.00 0.00 67 1014.4
20260505032312 59 197 4.0 8.0 0.00 0.00 0.00 63 1014.4
20260505031823 59 218 4.0 9.0 0.00 0.00 0.00 61 1014.4
20260505031315 59 222 4.0 8.0 0.00 0.00 0.00 61 1014.4
20260505030826 59 235 1.0 5.0 0.00 0.00 0.00 62 1014.3
20260505030316 59 275 1.0 5.0 0.00 0.00 0.00 62 1014.2
20260505025828 59 274 2.0 6.0 0.00 0.00 0.00 62 1014.1
20260505025323 59 262 1.0 8.0 0.00 0.00 0.00 62 1014.1
20260505024815 59 281 4.0 9.0 0.00 0.00 0.00 62 1014.1
20260505024346 59 252 2.0 10.0 0.00 0.00 0.00 62 1014.1
20260505023815 59 221 4.0 9.0 0.00 0.00 0.00 61 1014.1
20260505023327 60 274 3.0 8.0 0.00 0.00 0.00 61 1014.1
20260505022819 60 165 4.0 9.0 0.00 0.00 0.00 60 1014.1
20260505022350 60 216 3.0 9.0 0.00 0.00 0.00 60 1014.0
20260505021820 60 221 2.0 8.0 0.00 0.00 0.00 59 1014.1
20260505021312 60 281 4.0 8.0 0.00 0.00 0.00 58 1014.1
20260505020823 60 252 2.0 8.0 0.00 0.00 0.00 57 1014.0
20260505020335 61 272 2.0 6.0 0.00 0.00 0.00 57 1014.0
20260505015830 61 259 2.0 8.0 0.00 0.00 0.00 57 1014.0
20260505015322 61 257 1.0 9.0 0.00 0.00 0.00 56 1013.9
20260505014814 61 248 3.0 9.0 0.00 0.00 0.00 56 1013.8
20260505014325 61 242 3.0 9.0 0.00 0.00 0.00 56 1013.8
20260505013815 61 293 4.0 12.0 0.00 0.00 0.00 56 1013.8
20260505013328 62 264 5.0 10.0 0.00 0.00 0.00 55 1013.8
20260505012819 62 247 4.0 14.0 0.00 0.00 0.00 54 1013.8
20260505012330 62 278 5.0 14.0 0.00 0.00 0.00 53 1013.7
20260505011824 63 240 4.0 12.0 0.00 0.00 0.00 52 1013.7
20260505011316 64 278 5.0 12.0 0.00 0.00 0.00 50 1013.7
20260505010827 64 248 2.0 10.0 0.00 0.00 0.00 49 1013.8
20260505010317 64 237 3.0 8.0 0.00 0.00 0.00 47 1013.7
20260505005850 64 266 2.0 6.0 0.00 0.00 0.00 45 1013.8
20260505005320 64 266 2.0 7.0 0.00 0.00 0.00 44 1013.7
20260505004852 64 289 1.0 7.0 0.00 0.00 0.00 44 1013.7
20260505004322 64 270 2.0 5.0 0.00 0.00 0.00 44 1013.7
20260505003813 65 196 3.0 7.0 0.00 0.00 0.00 44 1013.8
20260505003344 65 298 3.0 7.0 0.00 0.00 0.00 43 1013.8
20260505002818 64 259 1.0 5.0 0.00 0.00 0.00 44 1013.8
20260505002330 64 274 1.0 4.0 0.00 0.00 0.00 44 1013.9
20260505001842 64 230 1.0 7.0 0.00 0.00 0.00 43 1013.8
20260505001312 64 333 2.0 6.0 0.00 0.00 0.00 43 1014.0
20260505000824 64 307 2.0 6.0 0.00 0.00 0.00 43 1013.9
20260505000315 65 307 1.0 6.0 0.00 0.00 0.00 42 1013.8
20260504235826 65 195 1.0 7.0 0.00 0.00 0.00 43 1013.8
20260504235319 65 238 2.0 7.0 0.00 0.00 0.00 43 1013.9
20260504234830 65 306 3.0 6.0 0.00 0.00 0.00 43 1013.9
20260504234326 64 273 2.0 6.0 0.00 0.00 0.00 44 1013.9
20260504233836 64 268 2.0 7.0 0.00 0.00 0.00 44 1013.8
20260504233327 64 263 1.0 7.0 0.00 0.00 0.00 45 1013.8
20260504232839 64 309 1.0 7.0 0.00 0.00 0.00 45 1013.9
20260504232329 64 269 1.0 4.0 0.00 0.00 0.00 46 1013.8
20260504231819 64 270 1.0 8.0 0.00 0.00 0.00 45 1013.9
20260504231331 64 274 2.0 8.0 0.00 0.00 0.00 46 1013.9
20260504230822 64 259 1.0 9.0 0.00 0.00 0.00 46 1013.9
20260504230312 64 311 6.0 9.0 0.00 0.00 0.00 46 1013.8
20260504225822 64 309 2.0 7.0 0.00 0.00 0.00 46 1013.9
20260504225314 64 323 2.0 8.0 0.00 0.00 0.00 46 1014.1
20260504224829 64 308 4.0 9.0 0.00 0.00 0.00 46 1014.1
20260504224320 64 302 4.0 9.0 0.00 0.00 0.00 46 1014.1
20260504223331 64 311 2.0 6.0 0.00 0.00 0.00 47 1014.3
20260504222822 64 271 2.0 7.0 0.00 0.00 0.00 47 1014.4
20260504222333 63 302 4.0 7.0 0.00 0.00 0.00 48 1014.5
20260504221823 63 297 2.0 6.0 0.00 0.00 0.00 49 1014.5
20260504221313 63 39 1.0 7.0 0.00 0.00 0.00 49 1014.7
20260504220845 63 311 4.0 7.0 0.00 0.00 0.00 48 1014.7
20260504220314 63 266 2.0 10.0 0.00 0.00 0.00 48 1014.7
20260504215825 63 277 6.0 10.0 0.00 0.00 0.00 47 1014.7
20260504215319 63 247 2.0 9.0 0.00 0.00 0.00 48 1014.8
20260504214829 63 311 5.0 9.0 0.00 0.00 0.00 48 1014.8
20260504214320 63 307 2.0 7.0 0.00 0.00 0.00 49 1014.9
20260504213812 63 302 2.0 8.0 0.00 0.00 0.00 49 1014.9
20260504213324 63 297 3.0 8.0 0.00 0.00 0.00 48 1015.1
20260504212815 64 307 2.0 6.0 0.00 0.00 0.00 49 1015.2
20260504212325 63 277 1.0 4.0 0.00 0.00 0.00 48 1015.4
20260504211816 63 263 2.0 4.0 0.00 0.00 0.00 48 1015.2
20260504211327 63 109 0.0 4.0 0.00 0.00 0.00 50 1015.3
20260504210823 63 224 1.0 5.0 0.00 0.00 0.00 50 1015.3
20260504210314 63 12 0.0 7.0 0.00 0.00 0.00 51 1015.3
20260504205826 63 300 1.0 7.0 0.00 0.00 0.00 51 1015.3
20260504205318 63 229 2.0 5.0 0.00 0.00 0.00 51 1015.4
20260504204829 63 257 2.0 8.0 0.00 0.00 0.00 51 1015.4
20260504204321 62 311 4.0 8.0 0.00 0.00 0.00 50 1015.4
20260504203812 62 266 3.0 7.0 0.00 0.00 0.00 51 1015.3
20260504203323 62 306 2.0 8.0 0.00 0.00 0.00 51 1015.3
20260504202817 62 259 4.0 8.0 0.00 0.00 0.00 52 1015.4
20260504202328 63 260 3.0 6.0 0.00 0.00 0.00 51 1015.5
20260504201819 62 274 2.0 6.0 0.00 0.00 0.00 51 1015.4
20260504201351 62 295 1.0 6.0 0.00 0.00 0.00 51 1015.4
20260504200821 62 224 0.0 7.0 0.00 0.00 0.00 51 1015.5
20260504200312 62 245 1.0 9.0 0.00 0.00 0.00 51 1015.6
20260504195823 62 242 3.0 9.0 0.00 0.00 0.00 52 1015.7
20260504195314 61 240 0.0 6.0 0.00 0.00 0.00 53 1015.8
20260504194826 62 285 2.0 7.0 0.00 0.00 0.00 52 1015.8
20260504194322 62 236 1.0 5.0 0.00 0.00 0.00 52 1015.9
20260504193832 62 275 1.0 4.0 0.00 0.00 0.00 53 1015.9
20260504193323 61 231 1.0 6.0 0.00 0.00 0.00 54 1015.7
20260504192813 61 252 2.0 7.0 0.00 0.00 0.00 53 1015.8
20260504192327 61 276 2.0 7.0 0.00 0.00 0.00 54 1016.0
20260504191837 61 251 1.0 6.0 0.00 0.00 0.00 55 1016.0
20260504191327 61 212 1.0 4.0 0.00 0.00 0.00 56 1016.1
20260504190818 61 139 0.0 7.0 0.00 0.00 0.00 55 1016.1
20260504190328 61 240 3.0 9.0 0.00 0.00 0.00 55 1016.3
20260504185820 61 215 3.0 9.0 0.00 0.00 0.00 56 1016.1
20260504185316 61 196 2.0 5.0 0.00 0.00 0.00 57 1015.9
20260504184848 60 197 1.0 5.0 0.00 0.00 0.00 56 1016.1
20260504184318 60 280 2.0 4.0 0.00 0.00 0.00 56 1016.1
20260504183827 60 264 1.0 5.0 0.00 0.00 0.00 56 1016.1
20260504183317 60 214 3.0 9.0 0.00 0.00 0.00 56 1016.1
20260504182828 60 220 4.0 9.0 0.00 0.00 0.00 56 1016.2
20260504182318 60 207 3.0 10.0 0.00 0.00 0.00 56 1016.2
20260504181830 60 236 3.0 11.0 0.00 0.00 0.00 55 1016.3
20260504181322 60 211 5.0 11.0 0.00 0.00 0.00 54 1016.2
20260504180813 61 273 2.0 8.0 0.00 0.00 0.00 53 1016.1
20260504180329 61 236 3.0 8.0 0.00 0.00 0.00 52 1016.1
20260504175820 61 239 2.0 5.0 0.00 0.00 0.00 52 1015.8
20260504175330 61 216 2.0 5.0 0.00 0.00 0.00 52 1015.9
20260504174821 60 225 1.0 5.0 0.00 0.00 0.00 55 1016.0
20260504174311 60 248 1.0 5.0 0.00 0.00 0.00 55 1015.9
20260504173825 60 270 2.0 6.0 0.00 0.00 0.00 55 1015.7
20260504173337 60 236 1.0 6.0 0.00 0.00 0.00 55 1015.8
20260504172826 60 186 2.0 5.0 0.00 0.00 0.00 55 1015.8
20260504172317 60 236 2.0 5.0 0.00 0.00 0.00 56 1015.7
20260504171812 59 266 1.0 4.0 0.00 0.00 0.00 59 1015.7
20260504171324 58 270 1.0 6.0 0.00 0.00 0.00 60 1015.7